Regional Weather Roundup
Issued by NWS

Home | Current Version | Previous Version | Text Only | Print | Product List | Glossary On
Versions: 1 2 3 4 5 6 7 8 9 10 11 12 13 14 15 16 17 18 19 20 21 22 23 24 25 26 27 28 29 30 31 32 33 34 35 36 37 38 39 40 41 42 43 44 45 46 47 48 49 50
000
ASUS45 KABQ 250810
RWRNM
NEW MEXICO REGIONAL WEATHER ROUNDUP
NATIONAL WEATHER SERVICE ALBUQUERQUE NM
200 AM MDT MON MAY 25 2015

NOTE: "FAIR" MEANS FEW OR NO CLOUDS BELOW 12,000 FEET AGL WITH NO
       SIGNIFICANT WEATHER OR OBSTRUCTIONS TO VISION.

      THIS PRODUCT IS RELEASED AS TWO VERSIONS.  ONE VERSION NEAR
      THE TOP OF THE HOUR CONTAINING PRELIMINARY DATA FROM ALBUQUERQUE
      AND OTHER STATIONS.  A FINAL VERSION WITH ADDITIONAL DATA IS
      ISSUED ABOUT 10 MINUTES AFTER THE HOUR.

NMZ501-503-504-510>518-250900-
NORTHWEST PLATEAU/NORTHCENTRAL MOUNTAINS

CITY           SKY/WX    TMP DP  RH WIND       PRES   REMARKS
FARMINGTON     CLOUDY    47  43  86 E3        29.96S
LOS ALAMOS     PTCLDY    45  37  76 S8        30.04S
SANTA FE       CLOUDY    48  40  73 W10       30.01S
TAOS           MOCLDY    41  30  65 N3        30.02F
ANGEL FIRE     FAIR      36  33  90 W8        30.05F WCI  29

$$
NMZ402-403-502-505>509-250900-
WESTCENTRAL MOUNTAINS/SOUTHWEST MOUNTAINS

CITY           SKY/WX    TMP DP  RH WIND       PRES   REMARKS
GALLUP         MOCLDY    45  38  76 SW5       30.04F
GRANTS         CLOUDY    41  37  83 W7        30.05F
SILVER CITY      N/A     48  28  46 NW8       30.02S

$$
NMZ407-409-411-412-250900-
SOUTHERN DESERTS

CITY           SKY/WX    TMP DP  RH WIND       PRES   REMARKS
LORDSBURG      FAIR      54  30  40 NW3       29.97F
DEMING         CLEAR     57  32  38 W7        29.96S
LAS CRUCES     CLEAR     60  29  31 W9        29.96F
HOLLOMAN AFB   PTCLDY    58  37  44 N7        29.91S
ALAMOGORDO     PTCLDY    59  32  36 N8        29.93R
T OR C         CLEAR     58  36  43 NW16      29.97S

$$
NMZ519>523-250900-
CENTRAL VALLEYS/CENTRAL HIGHLANDS

CITY           SKY/WX    TMP DP  RH WIND       PRES   REMARKS
ALBUQUERQUE    CLOUDY    53  46  77 CALM      30.00S
DOUBLE EAGLE   CLOUDY    49  46  92 NE6       30.01F
MORIARTY ARPT  CLOUDY    49  40  69 W7        30.02S
CLINES CORNERS CLOUDY    45  37  73 W16       30.01F
BELEN          FAIR      49  44  82 SW7       29.99F
SOCORRO        FAIR      55  41  58 CALM      29.98S

$$
NMZ524>526-539-540-250900-
SOUTHCENTRAL MOUNTAINS

CITY           SKY/WX    TMP DP  RH WIND       PRES   REMARKS
RUIDOSO        PTCLDY    48  34  57 W8        30.04R

$$
NMZ527>531-250900-
NORTHEAST HIGHLANDS/NORTHEAST PLAINS

CITY           SKY/WX    TMP DP  RH WIND       PRES   REMARKS
LAS VEGAS      MOCLDY    44  36  73 SW13      29.99S
RATON          MOCLDY    44  35  70 NE6       29.92S
CLAYTON        CLEAR     47  39  74 W7        29.85S

$$
NMZ532>537-250900-
EASTCENTRAL PLAINS

CITY           SKY/WX    TMP DP  RH WIND       PRES   REMARKS
TUCUMCARI      CLEAR     54  45  71 W8        29.84S
CANNON AFB     CLEAR     59  43  56 NW8       29.87R
CLOVIS AIRPORT CLEAR     52  43  71 NW8       29.87S

$$
NMZ028-029-538-250900-
SOUTHEAST PLAINS

CITY           SKY/WX    TMP DP  RH WIND       PRES   REMARKS
ROSWELL        CLOUDY    66  29  24 W13       29.84S
ARTESIA        CLOUDY    63  30  29 SW8       29.85F
CARLSBAD       CLOUDY    61  38  42 W6        29.84R
HOBBS          CLEAR     57  37  47 S9        29.89R


$$



USA.gov is the U.S. government's official web portal to all federal, state and local government web resources and services.